Regional Weather Roundup
Issued by NWS Sterling, VA

Home | Current Version | Previous Version | Graphics & Text | Print | Product List | Glossary On
Versions: 1 2 3 4 5 6 7 8 9 10 11 12 13 14 15 16 17 18 19 20 21 22 23 24 25 26 27
000
ASUS41 KLWX 220311
RWRLWX

REGIONAL WEATHER ROUNDUP
NATIONAL WEATHER SERVICE BALTIMORE MD/WASHINGTON DC
1000 PM EST TUE NOV 21 2017

Note: "FAIR" indicates few or no clouds below 12,000 feet
with no significant weather and/or obstructions to visibility.
 TC=TEMPERATURE CELSIUS

 * =Non NWS site. Station does not report precipitation (e.g. rain,
    snow, etc.), thunder, or fog.

DCZ001-MDZ009-015-VAZ040>042-051-053>054-220400-
WASHINGTON METRO

CITY           SKY/WX    TMP DP  RH WIND       PRES   REMARKS
WASHINGTON NAT CLOUDY    54  45  71 S8        30.05F
DULLES         CLOUDY    53  42  66 S9        30.03F
ANDREWS AFB    MOCLDY    55  43  65 S12       30.03F
FT BELVOIR     CLOUDY    55  43  64 S5        30.04F
COLLEGE PARK*  CLOUDY    55  42  62 S5        30.04S
LEESBURG*      CLOUDY    52  43  71 S7        30.03S
MANASSAS*      MOCLDY    47  40  76 SE3       30.04F
GAITHERSBURG*  CLOUDY    53  42  66 S6        30.03F

$$

MDZ006>007-011-014-220400-
BALTIMORE METRO

CITY           SKY/WX    TMP DP  RH WIND       PRES   REMARKS
BWI AIRPORT    CLOUDY    54  44  69 S7        30.03F
MARTIN STATE   CLEAR     54  48  82 CALM      30.06S
FORT MEADE*    PTCLDY    50  41  71 S6        30.06F

$$

MDZ012-015-019>023-220400-
MARYLAND EASTERN SHORE

CITY           SKY/WX    TMP DP  RH WIND       PRES   REMARKS
OCEAN CITY     CLOUDY    56  54  93 VRB6      30.09F
SALISBURY      CLOUDY    56  50  80 S7        30.08F
CAMBRIDGE*       N/A     57  48  72 S9G16     30.07S
EASTON*        MOCLDY    55  48  76 SW5       30.10F

$$

MDZ017>025-220400-
SOUTHERN MARYLAND

CITY           SKY/WX    TMP DP  RH WIND       PRES   REMARKS
PATUXENT RIVER NOT AVBL
ST INIGOES     NOT AVBL
LEONARDTOWN*   CLOUDY    54  45  71 SW3       30.07F

$$

MDZ003>005-220400-
NORTH CENTRAL MARYLAND

CITY           SKY/WX    TMP DP  RH WIND       PRES   REMARKS
FREDERICK*     CLOUDY    54  37  54 S9        30.03F
HAGERSTOWN APT CLEAR     47  39  74 S3        29.98S
WESTMINSTER*   CLEAR     54  45  71 S9        30.00F

$$

MDZ501>502-220400-
WESTERN MARYLAND

CITY           SKY/WX    TMP DP  RH WIND       PRES   REMARKS
OAKLAND*       CLEAR     43  30  61 SW6       29.93S
CUMBERLAND*    CLEAR     37  30  75 CALM      30.01R

$$

VAZ025>031-220400-
SHENANDOAH VALLEY

CITY           SKY/WX    TMP DP  RH WIND       PRES   REMARKS
WINCHESTER*    CLOUDY    50  39  66 SW5       29.99F
FRONT ROYAL*   PTCLDY    52  41  66 CALM      29.99F
LURAY*         CLOUDY    50  43  76 SW6       30.00F
NEW MARKET*    CLOUDY    49  40  70 SW6       30.00F
STAUNTON*      PTCLDY    44  39  82 CALM      30.02F
WAYNESBORO*    CLOUDY    52  44  75 SE5       30.01F

$$

WVZ021-048>050-054>055-220400-
EASTERN WEST VIRGINIA PANHANDLE

CITY           SKY/WX    TMP DP  RH WIND       PRES   REMARKS
MARTINSBURG    CLEAR     40  33  76 S3        29.98S
PETERSBURG*    CLOUDY    37  32  81 W5        29.97F

$$

VAZ036>039-050-220400-
CENTRAL FOOTHILLS

CITY           SKY/WX    TMP DP  RH WIND       PRES   REMARKS
CHARLOTTESVILL CLOUDY    52  40  63 S8        30.03S
CULPEPER*      CLOUDY    47  38  71 CALM      30.05S
ORANGE*        CLOUDY    52  37  58 CALM      30.04F
GORDONSVILLE*  CLOUDY    51  40  66 SW3       30.03F
WARRENTON*     NOT AVBL

$$

VAZ055>057-220400-
NORTH AND CENTRAL PIEDMONT

CITY           SKY/WX    TMP DP  RH WIND       PRES   REMARKS
FREDERICKSBRG* CLOUDY    51  45  78 CALM      30.05F
STAFFORD*      MOCLDY    51  44  76 CALM      30.09F

$$

NCZ024-NYZ072-PAZ021-071-VAZ022-071-220400-
OTHER REGIONAL OBSERVATIONS

CITY           SKY/WX    TMP DP  RH WIND       PRES   REMARKS
PHILADELPHIA   MOCLDY    54  40  59 SW9       30.05S
PITTSBURGH     CLOUDY    50  29  44 W5        29.92S
ROANOKE        MOCLDY    51  44  77 E3        30.05F
RICHMOND       CLOUDY    53  47  79 S3        30.06F
RALEIGH        CLOUDY    54  48  80 CALM      30.05F

$$

ANZ530>537-220400-
MARINE OBSERVATIONS

STATION/POSITION TIME  TEMP    WIND        PRES
                       AIR SEA DIR/SP/G
                 (UTC) (F)     (DEG/KT/KT) (MB)
THOMAS PT LIGHT  0300   55 53  180/  9/ 10   N/A
BALT KEY BRIDGE  0248   56     190/ 11/ 14 1016.9F
COVE POINT       0248   57     200/ 11/ 13 1018.6F
LEWISETTA        0248          190/  8/ 10   N/A
SOLOMONS ISLAND  0248   56 54   CALM  /  1 1017.5F
PINEY POINT      0242          190/ 10/ 10   N/A

$$





USA.gov is the U.S. government's official web portal to all federal, state and local government web resources and services.